Location: Northcutt
(34.7304°N, 84.4305°W)
Time: 17:12:31
(UTC+00:00)

SR - Pass Details

Date: 06 October 2022
Orbit: 577 x 874 km, 66.7° (Epoch: 05 December)

Event Time Altitude Azimuth Distance (km) Brightness Sun altitude
Rises 09:26:16 0° 349° (N) 3,302 ? -27.4°
Reaches altitude 10° 09:29:50 10° 12° (NNE) 2,304 ? -26.6°
Maximum altitude 09:32:51 15° 47° (NE) 1,906 ? -26.0°
Drops below altitude 10° 09:35:44 10° 83° (E) 2,181 ? -25.5°
Sets 09:38:56 0° 106° (ESE) 3,028 ? -24.8°
